Year,Month,Day,Hour,Minute,Value (Times are PST for temperature in C)
2018,05,25,00,00,12.80
2018,05,25,00,01,12.80
2018,05,25,00,02,12.80
2018,05,25,00,03,12.70
2018,05,25,00,04,12.70
2018,05,25,00,05,12.70
2018,05,25,00,06,12.70
2018,05,25,00,07,12.70
2018,05,25,00,08,12.70
2018,05,25,00,09,12.70
2018,05,25,00,10,12.70
2018,05,25,00,11,12.70
2018,05,25,00,12,12.70
2018,05,25,00,13,12.70
2018,05,25,00,14,12.60
2018,05,25,00,15,12.60
2018,05,25,00,16,12.60
2018,05,25,00,17,12.60
2018,05,25,00,18,12.60
2018,05,25,00,19,12.60
2018,05,25,00,20,12.50
2018,05,25,00,21,12.50
2018,05,25,00,22,12.50
2018,05,25,00,23,12.50
2018,05,25,00,24,12.50
2018,05,25,00,25,12.50
2018,05,25,00,26,12.40
2018,05,25,00,27,12.40
2018,05,25,00,28,12.40
2018,05,25,00,29,12.40
2018,05,25,00,30,12.30
2018,05,25,00,31,12.30
2018,05,25,00,32,12.30
2018,05,25,00,33,12.30
2018,05,25,00,34,12.30
2018,05,25,00,35,12.30
2018,05,25,00,36,12.30
2018,05,25,00,37,12.30
2018,05,25,00,38,12.30
2018,05,25,00,39,12.30
2018,05,25,00,40,12.30
2018,05,25,00,41,12.20
2018,05,25,00,42,12.20
2018,05,25,00,43,12.20
2018,05,25,00,44,12.20
2018,05,25,00,45,12.20
2018,05,25,00,46,12.20
2018,05,25,00,47,12.20
2018,05,25,00,48,12.20
2018,05,25,00,49,12.20
2018,05,25,00,50,12.10
2018,05,25,00,51,12.10
2018,05,25,00,52,12.10
2018,05,25,00,53,12.10
2018,05,25,00,54,12.10
2018,05,25,00,55,12.20
2018,05,25,00,56,12.20
2018,05,25,00,57,12.20
2018,05,25,00,58,12.20
2018,05,25,00,59,12.20
2018,05,25,01,00,12.20
2018,05,25,01,01,12.20
2018,05,25,01,02,12.20
2018,05,25,01,03,12.20
2018,05,25,01,04,12.20
2018,05,25,01,05,12.20
2018,05,25,01,06,12.20
2018,05,25,01,07,12.20
2018,05,25,01,08,12.20
2018,05,25,01,09,12.20
2018,05,25,01,10,12.30
2018,05,25,01,11,12.30
2018,05,25,01,12,12.30
2018,05,25,01,13,12.30
2018,05,25,01,14,12.30
2018,05,25,01,15,12.30
2018,05,25,01,16,12.30
2018,05,25,01,17,12.30
2018,05,25,01,18,12.30
2018,05,25,01,19,12.30
2018,05,25,01,20,12.30
2018,05,25,01,21,12.30
2018,05,25,01,22,12.30
2018,05,25,01,23,12.30
2018,05,25,01,24,12.30
2018,05,25,01,25,12.30
2018,05,25,01,26,12.30
2018,05,25,01,27,12.30
2018,05,25,01,28,12.30
2018,05,25,01,29,12.30
2018,05,25,01,30,12.30
2018,05,25,01,31,12.30
2018,05,25,01,32,12.30
2018,05,25,01,33,12.30
2018,05,25,01,34,12.30
2018,05,25,01,35,12.30
2018,05,25,01,36,12.30
2018,05,25,01,37,12.30
2018,05,25,01,38,12.30
2018,05,25,01,39,12.30
2018,05,25,01,40,12.30
2018,05,25,01,41,12.30
2018,05,25,01,42,12.40
2018,05,25,01,43,12.40
2018,05,25,01,44,12.40
2018,05,25,01,45,12.40
2018,05,25,01,46,12.40
2018,05,25,01,47,12.40
2018,05,25,01,48,12.40
2018,05,25,01,49,12.40
2018,05,25,01,50,12.40
2018,05,25,01,51,12.40
2018,05,25,01,52,12.40
2018,05,25,01,53,12.40
2018,05,25,01,54,12.40
2018,05,25,01,55,12.40
2018,05,25,01,56,12.40
2018,05,25,01,57,12.40
2018,05,25,01,58,12.40
2018,05,25,01,59,12.40
2018,05,25,02,00,12.40
2018,05,25,02,01,12.40
2018,05,25,02,02,12.40
2018,05,25,02,03,12.40
2018,05,25,02,04,12.40
2018,05,25,02,05,12.40
2018,05,25,02,06,12.40
2018,05,25,02,07,12.50
2018,05,25,02,08,12.50
2018,05,25,02,09,12.50
2018,05,25,02,10,12.50
2018,05,25,02,11,12.50
2018,05,25,02,12,12.50
2018,05,25,02,13,12.50
2018,05,25,02,14,12.50
2018,05,25,02,15,12.50
2018,05,25,02,16,12.50
2018,05,25,02,17,12.50
2018,05,25,02,18,12.50
2018,05,25,02,19,12.50
2018,05,25,02,20,12.50
2018,05,25,02,21,12.50
2018,05,25,02,22,12.40
2018,05,25,02,23,12.40
2018,05,25,02,24,12.40
2018,05,25,02,25,12.40
2018,05,25,02,26,12.40
2018,05,25,02,27,12.40
2018,05,25,02,28,12.40
2018,05,25,02,29,12.30
2018,05,25,02,30,12.30
2018,05,25,02,31,12.30
2018,05,25,02,32,12.30
2018,05,25,02,33,12.30
2018,05,25,02,34,12.30
2018,05,25,02,35,12.30
2018,05,25,02,36,12.30
2018,05,25,02,37,12.20
2018,05,25,02,38,12.20
2018,05,25,02,39,12.20
2018,05,25,02,40,12.20
2018,05,25,02,41,12.10
2018,05,25,02,42,12.10
2018,05,25,02,43,12.10
2018,05,25,02,44,12.10
2018,05,25,02,45,12.10
2018,05,25,02,46,12.10
2018,05,25,02,47,12.10
2018,05,25,02,48,12.00
2018,05,25,02,49,12.00
2018,05,25,02,50,12.00
2018,05,25,02,51,11.90
2018,05,25,02,52,11.90
2018,05,25,02,53,11.90
2018,05,25,02,54,11.80
2018,05,25,02,55,11.80
2018,05,25,02,56,11.80
2018,05,25,02,57,11.80
2018,05,25,02,58,11.80
2018,05,25,02,59,11.80
2018,05,25,03,00,11.80
2018,05,25,03,01,11.80
2018,05,25,03,02,11.80
2018,05,25,03,03,11.70
2018,05,25,03,04,11.70
2018,05,25,03,05,11.70
2018,05,25,03,06,11.60
2018,05,25,03,07,11.60
2018,05,25,03,08,11.60
2018,05,25,03,09,11.60
2018,05,25,03,10,11.60
2018,05,25,03,11,11.50
2018,05,25,03,12,11.40
2018,05,25,03,13,11.40
2018,05,25,03,14,11.40
2018,05,25,03,15,11.40
2018,05,25,03,16,11.40
2018,05,25,03,17,11.40
2018,05,25,03,18,11.40
2018,05,25,03,19,11.40
2018,05,25,03,20,11.40
2018,05,25,03,21,11.40
2018,05,25,03,22,11.40
2018,05,25,03,23,11.40
2018,05,25,03,24,11.40
2018,05,25,03,25,11.40
2018,05,25,03,26,11.40
2018,05,25,03,27,11.40
2018,05,25,03,28,11.40
2018,05,25,03,29,11.40
2018,05,25,03,30,11.40
2018,05,25,03,31,11.40
2018,05,25,03,32,11.30
2018,05,25,03,33,11.30
2018,05,25,03,34,11.30
2018,05,25,03,35,11.30
2018,05,25,03,36,11.30
2018,05,25,03,37,11.30
2018,05,25,03,38,11.30
2018,05,25,03,39,11.30
2018,05,25,03,40,11.30
2018,05,25,03,41,11.30
2018,05,25,03,42,11.30
2018,05,25,03,43,11.30
2018,05,25,03,44,11.30
2018,05,25,03,45,11.30
2018,05,25,03,46,11.30
2018,05,25,03,47,11.30
2018,05,25,03,48,11.30
2018,05,25,03,49,11.30
2018,05,25,03,50,11.30
2018,05,25,03,51,11.40
2018,05,25,03,52,11.40
2018,05,25,03,53,11.40
2018,05,25,03,54,11.40
2018,05,25,03,55,11.40
2018,05,25,03,56,11.40
2018,05,25,03,57,11.40
2018,05,25,03,58,11.40
2018,05,25,03,59,11.40
2018,05,25,04,00,11.40
2018,05,25,04,01,11.40
2018,05,25,04,02,11.40
2018,05,25,04,03,11.50
2018,05,25,04,04,11.60
2018,05,25,04,05,11.60
2018,05,25,04,06,11.60
2018,05,25,04,07,11.60
2018,05,25,04,08,11.60
2018,05,25,04,09,11.60
2018,05,25,04,10,11.60
2018,05,25,04,11,11.60
2018,05,25,04,12,11.60
2018,05,25,04,13,11.60
2018,05,25,04,14,11.60
2018,05,25,04,15,11.60
2018,05,25,04,16,11.60
2018,05,25,04,17,11.60
2018,05,25,04,18,11.60
2018,05,25,04,19,11.60
2018,05,25,04,20,11.60
2018,05,25,04,21,11.60
2018,05,25,04,22,11.60
2018,05,25,04,23,11.60
2018,05,25,04,24,11.60
2018,05,25,04,25,11.60
2018,05,25,04,26,11.60
2018,05,25,04,27,11.60
2018,05,25,04,28,11.60
2018,05,25,04,29,11.60
2018,05,25,04,30,11.60
2018,05,25,04,31,11.60
2018,05,25,04,32,11.60
2018,05,25,04,33,11.60
2018,05,25,04,34,11.60
2018,05,25,04,35,11.60
2018,05,25,04,36,11.60
2018,05,25,04,37,11.60
2018,05,25,04,38,11.40
2018,05,25,04,39,11.40
2018,05,25,04,40,11.40
2018,05,25,04,41,11.40
2018,05,25,04,42,11.40
2018,05,25,04,43,11.40
2018,05,25,04,44,11.40
2018,05,25,04,45,11.40
2018,05,25,04,46,11.40
2018,05,25,04,47,11.30
2018,05,25,04,48,11.30
2018,05,25,04,49,11.30
2018,05,25,04,50,11.30
2018,05,25,04,51,11.20
2018,05,25,04,52,11.20
2018,05,25,04,53,11.20
2018,05,25,04,54,11.10
2018,05,25,04,55,11.10
2018,05,25,04,56,11.10
2018,05,25,04,57,11.10
2018,05,25,04,58,11.10
2018,05,25,04,59,11.10
2018,05,25,05,00,11.10
2018,05,25,05,01,11.10
2018,05,25,05,02,11.00
2018,05,25,05,03,10.90
2018,05,25,05,04,10.90
2018,05,25,05,05,10.90
2018,05,25,05,06,10.90
2018,05,25,05,07,10.90
2018,05,25,05,08,10.90
2018,05,25,05,09,10.90
2018,05,25,05,10,10.90
2018,05,25,05,11,10.90
2018,05,25,05,12,10.90
2018,05,25,05,13,10.90
2018,05,25,05,14,10.90
2018,05,25,05,15,10.90
2018,05,25,05,16,10.90
2018,05,25,05,17,10.90
2018,05,25,05,18,10.90
2018,05,25,05,19,10.80
2018,05,25,05,20,10.80
2018,05,25,05,21,10.80
2018,05,25,05,22,10.80
2018,05,25,05,23,10.80
2018,05,25,05,24,10.70
2018,05,25,05,25,10.70
2018,05,25,05,26,10.70
2018,05,25,05,27,10.70
2018,05,25,05,28,10.70
2018,05,25,05,29,10.70
2018,05,25,05,30,10.70
2018,05,25,05,31,10.70
2018,05,25,05,32,10.70
2018,05,25,05,33,10.70
2018,05,25,05,34,10.70
2018,05,25,05,35,10.60
2018,05,25,05,36,10.60
2018,05,25,05,37,10.60
2018,05,25,05,38,10.60
2018,05,25,05,39,10.60
2018,05,25,05,40,10.60
2018,05,25,05,41,10.60
2018,05,25,05,42,10.60
2018,05,25,05,43,10.60
2018,05,25,05,44,10.60
2018,05,25,05,45,10.60
2018,05,25,05,46,10.60
2018,05,25,05,47,10.60
2018,05,25,05,48,10.60
2018,05,25,05,49,10.60
2018,05,25,05,50,10.60
2018,05,25,05,51,10.60
2018,05,25,05,52,10.60
2018,05,25,05,53,10.50
2018,05,25,05,54,10.40
2018,05,25,05,55,10.40
2018,05,25,05,56,10.40
2018,05,25,05,57,10.40
2018,05,25,05,58,10.40
2018,05,25,05,59,10.40
2018,05,25,06,00,10.40
2018,05,25,06,01,10.40
2018,05,25,06,02,10.40
2018,05,25,06,03,10.40
2018,05,25,06,04,10.40
2018,05,25,06,05,10.40
2018,05,25,06,06,10.40
2018,05,25,06,07,10.50
2018,05,25,06,08,10.60
2018,05,25,06,09,10.60
2018,05,25,06,10,10.60
2018,05,25,06,11,10.60
2018,05,25,06,12,10.60
2018,05,25,06,13,10.60
2018,05,25,06,14,10.60
2018,05,25,06,15,10.60
2018,05,25,06,16,10.70
2018,05,25,06,17,10.70
2018,05,25,06,18,10.70
2018,05,25,06,19,10.70
2018,05,25,06,20,10.70
2018,05,25,06,21,10.70
2018,05,25,06,22,10.70
2018,05,25,06,23,10.70
2018,05,25,06,24,10.70
2018,05,25,06,25,10.70
2018,05,25,06,26,10.70
2018,05,25,06,27,10.70
2018,05,25,06,28,10.80
2018,05,25,06,29,10.80
2018,05,25,06,30,10.80
2018,05,25,06,31,10.90
2018,05,25,06,32,10.90
2018,05,25,06,33,10.90
2018,05,25,06,34,10.90
2018,05,25,06,35,10.90
2018,05,25,06,36,11.00
2018,05,25,06,37,11.10
2018,05,25,06,38,11.10
2018,05,25,06,39,11.10
2018,05,25,06,40,11.10
2018,05,25,06,41,11.10
2018,05,25,06,42,11.20
2018,05,25,06,43,11.20
2018,05,25,06,44,11.20
2018,05,25,06,45,11.30
2018,05,25,06,46,11.30
2018,05,25,06,47,11.30
2018,05,25,06,48,11.40
2018,05,25,06,49,11.40
2018,05,25,06,50,11.40
2018,05,25,06,51,11.40
2018,05,25,06,52,11.40
2018,05,25,06,53,11.50
2018,05,25,06,54,11.60
2018,05,25,06,55,11.60
2018,05,25,06,56,11.60
2018,05,25,06,57,11.70
2018,05,25,06,58,11.70
2018,05,25,06,59,11.80
2018,05,25,07,00,11.80
2018,05,25,07,01,11.80
2018,05,25,07,02,11.80
2018,05,25,07,03,11.90
2018,05,25,07,04,11.90
2018,05,25,07,05,12.00
2018,05,25,07,06,12.00
2018,05,25,07,07,12.10
2018,05,25,07,08,12.10
2018,05,25,07,09,12.20
2018,05,25,07,10,12.20
2018,05,25,07,11,12.20
2018,05,25,07,12,12.20
2018,05,25,07,13,12.20
2018,05,25,07,14,12.20
2018,05,25,07,15,12.20
2018,05,25,07,16,12.30
2018,05,25,07,17,12.30
2018,05,25,07,18,12.30
2018,05,25,07,19,12.30
2018,05,25,07,20,12.30
2018,05,25,07,21,12.30
2018,05,25,07,22,12.30
2018,05,25,07,23,12.30
2018,05,25,07,24,12.30
2018,05,25,07,25,12.40
2018,05,25,07,26,12.40
2018,05,25,07,27,12.40
2018,05,25,07,28,12.40
2018,05,25,07,29,12.40
2018,05,25,07,30,12.50
2018,05,25,07,31,12.50
2018,05,25,07,32,12.50
2018,05,25,07,33,12.60
2018,05,25,07,34,12.60
2018,05,25,07,35,12.60
2018,05,25,07,36,12.60
2018,05,25,07,37,12.70
2018,05,25,07,38,12.70
2018,05,25,07,39,12.70
2018,05,25,07,40,12.70
2018,05,25,07,41,12.60
2018,05,25,07,42,12.60
2018,05,25,07,43,12.70
2018,05,25,07,44,12.70
2018,05,25,07,45,12.70
2018,05,25,07,46,12.80
2018,05,25,07,47,12.80
2018,05,25,07,48,12.80
2018,05,25,07,49,12.80
2018,05,25,07,50,12.80
2018,05,25,07,51,12.80
2018,05,25,07,52,12.80
2018,05,25,07,53,12.80
2018,05,25,07,54,12.90
2018,05,25,07,55,12.90
2018,05,25,07,56,12.90
2018,05,25,07,57,12.90
2018,05,25,07,58,12.90
2018,05,25,07,59,12.90
2018,05,25,08,00,13.00
2018,05,25,08,01,12.90
2018,05,25,08,02,12.90
2018,05,25,08,03,12.90
2018,05,25,08,04,13.00
2018,05,25,08,05,13.00
2018,05,25,08,06,13.10
2018,05,25,08,07,13.10
2018,05,25,08,08,13.10
2018,05,25,08,09,13.10
2018,05,25,08,10,13.10
2018,05,25,08,11,13.10
2018,05,25,08,12,13.10
2018,05,25,08,13,13.10
2018,05,25,08,14,13.20
2018,05,25,08,15,13.20
2018,05,25,08,16,13.30
2018,05,25,08,17,13.30
2018,05,25,08,18,13.40
2018,05,25,08,19,13.40
2018,05,25,08,20,13.50
2018,05,25,08,21,13.50
2018,05,25,08,22,13.50
2018,05,25,08,23,13.50
2018,05,25,08,24,13.60
2018,05,25,08,25,13.60
2018,05,25,08,26,13.70
2018,05,25,08,27,13.70
2018,05,25,08,28,13.70
2018,05,25,08,29,13.70
2018,05,25,08,30,13.70
2018,05,25,08,31,13.80
2018,05,25,08,32,13.80
2018,05,25,08,33,13.80
2018,05,25,08,34,13.80
2018,05,25,08,35,13.80
2018,05,25,08,36,13.80
2018,05,25,08,37,13.90
2018,05,25,08,38,13.90
2018,05,25,08,39,13.90
2018,05,25,08,40,13.90
2018,05,25,08,41,14.00
2018,05,25,08,42,14.10
2018,05,25,08,43,14.10
2018,05,25,08,44,14.10
2018,05,25,08,45,14.20
2018,05,25,08,46,14.20
2018,05,25,08,47,14.20
2018,05,25,08,48,14.20
2018,05,25,08,49,14.20
2018,05,25,08,50,14.30
2018,05,25,08,51,14.30
2018,05,25,08,52,14.30
2018,05,25,08,53,14.40
2018,05,25,08,54,14.40
2018,05,25,08,55,14.40
2018,05,25,08,56,14.40
2018,05,25,08,57,14.30
2018,05,25,08,58,14.20
2018,05,25,08,59,14.20
2018,05,25,09,00,14.20
2018,05,25,09,01,14.20
2018,05,25,09,02,14.20
2018,05,25,09,03,14.20
2018,05,25,09,04,14.20
2018,05,25,09,05,14.20
2018,05,25,09,06,14.30
2018,05,25,09,07,14.30
2018,05,25,09,08,14.30
2018,05,25,09,09,14.30
2018,05,25,09,10,14.30
2018,05,25,09,11,14.30
2018,05,25,09,12,14.30
2018,05,25,09,13,14.30
2018,05,25,09,14,14.40
2018,05,25,09,15,14.50
2018,05,25,09,16,14.50
2018,05,25,09,17,14.50
2018,05,25,09,18,14.50
2018,05,25,09,19,14.50
2018,05,25,09,20,14.60
2018,05,25,09,21,14.70
2018,05,25,09,22,14.70
2018,05,25,09,23,14.80
2018,05,25,09,24,14.90
2018,05,25,09,25,15.00
2018,05,25,09,26,15.00
2018,05,25,09,27,15.10
2018,05,25,09,28,15.20
2018,05,25,09,29,15.20
2018,05,25,09,30,15.20
2018,05,25,09,31,15.10
2018,05,25,09,32,15.10
2018,05,25,09,33,15.10
2018,05,25,09,34,15.20
2018,05,25,09,35,15.20
2018,05,25,09,36,15.20
2018,05,25,09,37,15.30
2018,05,25,09,38,15.30
2018,05,25,09,39,15.30
2018,05,25,09,40,15.30
2018,05,25,09,41,15.30
2018,05,25,09,42,15.30
2018,05,25,09,43,15.40
2018,05,25,09,44,15.40
2018,05,25,09,45,15.30
2018,05,25,09,46,15.40
2018,05,25,09,47,15.40
2018,05,25,09,48,15.40
2018,05,25,09,49,15.40
2018,05,25,09,50,15.40
2018,05,25,09,51,15.50
2018,05,25,09,52,15.50
2018,05,25,09,53,15.50
2018,05,25,09,54,15.60
2018,05,25,09,55,15.60
2018,05,25,09,56,15.70
2018,05,25,09,57,15.60
2018,05,25,09,58,15.60
2018,05,25,09,59,15.60
2018,05,25,10,00,15.70
2018,05,25,10,01,15.80
2018,05,25,10,02,15.80
2018,05,25,10,03,15.90
2018,05,25,10,04,16.00
2018,05,25,10,05,16.10
2018,05,25,10,06,16.10
2018,05,25,10,07,16.10
2018,05,25,10,08,16.20
2018,05,25,10,09,16.20
2018,05,25,10,10,16.30
2018,05,25,10,11,16.40
2018,05,25,10,12,16.50
2018,05,25,10,13,16.60
2018,05,25,10,14,16.70
2018,05,25,10,15,16.70
2018,05,25,10,16,16.70
2018,05,25,10,17,16.70
2018,05,25,10,18,16.70
2018,05,25,10,19,16.60
2018,05,25,10,20,16.50
2018,05,25,10,21,16.40
2018,05,25,10,22,16.40
2018,05,25,10,23,16.40
2018,05,25,10,24,16.50
2018,05,25,10,25,16.60
2018,05,25,10,26,16.70
2018,05,25,10,27,16.70
2018,05,25,10,28,16.80
2018,05,25,10,29,16.90
2018,05,25,10,30,17.00
2018,05,25,10,31,17.00
2018,05,25,10,32,17.00
2018,05,25,10,33,16.90
2018,05,25,10,34,16.90
2018,05,25,10,35,16.90
2018,05,25,10,36,16.90
2018,05,25,10,37,16.80
2018,05,25,10,38,16.70
2018,05,25,10,39,16.70
2018,05,25,10,40,16.70
2018,05,25,10,41,16.60
2018,05,25,10,42,16.40
2018,05,25,10,43,16.40
2018,05,25,10,44,16.40
2018,05,25,10,45,16.50
2018,05,25,10,46,16.60
2018,05,25,10,47,16.70
2018,05,25,10,48,16.70
2018,05,25,10,49,16.80
2018,05,25,10,50,16.80
2018,05,25,10,51,16.90
2018,05,25,10,52,17.00
2018,05,25,10,53,17.00
2018,05,25,10,54,17.10
2018,05,25,10,55,17.20
2018,05,25,10,56,17.30
2018,05,25,10,57,17.30
2018,05,25,10,58,17.50
2018,05,25,10,59,17.60
2018,05,25,11,00,17.60
2018,05,25,11,01,17.80
2018,05,25,11,02,17.90
2018,05,25,11,03,17.90
2018,05,25,11,04,18.10
2018,05,25,11,05,18.20
2018,05,25,11,06,18.20
2018,05,25,11,07,18.30
2018,05,25,11,08,18.40
2018,05,25,11,09,18.40
2018,05,25,11,10,18.50
2018,05,25,11,11,18.50
2018,05,25,11,12,18.60
2018,05,25,11,13,18.60
2018,05,25,11,14,18.60
2018,05,25,11,15,18.60
2018,05,25,11,16,18.60
2018,05,25,11,17,18.60
2018,05,25,11,18,18.60
2018,05,25,11,19,18.60
2018,05,25,11,20,18.60
2018,05,25,11,21,18.60
2018,05,25,11,22,18.60
2018,05,25,11,23,18.50
2018,05,25,11,24,18.60
2018,05,25,11,25,18.60
2018,05,25,11,26,18.60
2018,05,25,11,27,18.60
2018,05,25,11,28,18.70
2018,05,25,11,29,18.70
2018,05,25,11,30,18.70
2018,05,25,11,31,18.60
2018,05,25,11,32,18.60
2018,05,25,11,33,18.50
2018,05,25,11,34,18.30
2018,05,25,11,35,18.20
2018,05,25,11,36,18.10
2018,05,25,11,37,18.10
2018,05,25,11,38,18.10
2018,05,25,11,39,18.20
2018,05,25,11,40,18.20
2018,05,25,11,41,18.20
2018,05,25,11,42,18.30
2018,05,25,11,43,18.30
2018,05,25,11,44,18.30
2018,05,25,11,45,18.30
2018,05,25,11,46,18.30
2018,05,25,11,47,18.30
2018,05,25,11,48,18.30
2018,05,25,11,49,18.40
2018,05,25,11,50,18.50
2018,05,25,11,51,18.60
2018,05,25,11,52,18.60
2018,05,25,11,53,18.80
2018,05,25,11,54,18.80
2018,05,25,11,55,18.80
2018,05,25,11,56,18.90
2018,05,25,11,57,18.80
2018,05,25,11,58,18.80
2018,05,25,11,59,18.70
2018,05,25,12,00,18.50
2018,05,25,12,01,18.30
2018,05,25,12,02,18.20
2018,05,25,12,03,18.20
2018,05,25,12,04,18.30
2018,05,25,12,05,18.40
2018,05,25,12,06,18.40
2018,05,25,12,07,18.40
2018,05,25,12,08,18.40
2018,05,25,12,09,18.30
2018,05,25,12,10,18.30
2018,05,25,12,11,18.40
2018,05,25,12,12,18.40
2018,05,25,12,13,18.30
2018,05,25,12,14,18.20
2018,05,25,12,15,17.90
2018,05,25,12,16,17.80
2018,05,25,12,17,17.70
2018,05,25,12,18,17.70
2018,05,25,12,19,17.70
2018,05,25,12,20,17.80
2018,05,25,12,21,17.90
2018,05,25,12,22,18.00
2018,05,25,12,23,18.20
2018,05,25,12,24,18.20
2018,05,25,12,25,18.30
2018,05,25,12,26,18.40
2018,05,25,12,27,18.50
2018,05,25,12,28,18.50
2018,05,25,12,29,18.50
2018,05,25,12,30,18.40
2018,05,25,12,31,18.30
2018,05,25,12,32,18.30
2018,05,25,12,33,18.20
2018,05,25,12,34,18.00
2018,05,25,12,35,17.90
2018,05,25,12,36,17.80
2018,05,25,12,37,17.70
2018,05,25,12,38,17.70
2018,05,25,12,39,17.60
2018,05,25,12,40,17.70
2018,05,25,12,41,17.70
2018,05,25,12,42,17.60
2018,05,25,12,43,17.60
2018,05,25,12,44,17.60
2018,05,25,12,45,17.70
2018,05,25,12,46,17.60
2018,05,25,12,47,17.60
2018,05,25,12,48,17.60
2018,05,25,12,49,17.70
2018,05,25,12,50,17.70
2018,05,25,12,51,17.70
2018,05,25,12,52,17.70
2018,05,25,12,53,17.80
2018,05,25,12,54,17.80
2018,05,25,12,55,17.90
2018,05,25,12,56,17.90
2018,05,25,12,57,17.80
2018,05,25,12,58,17.70
2018,05,25,12,59,17.70
2018,05,25,13,00,17.70
2018,05,25,13,01,17.70
2018,05,25,13,02,17.70
2018,05,25,13,03,17.70
2018,05,25,13,04,17.80
2018,05,25,13,05,17.80
2018,05,25,13,06,17.80
2018,05,25,13,07,17.80
2018,05,25,13,08,17.80
2018,05,25,13,09,17.80
2018,05,25,13,10,17.80
2018,05,25,13,11,17.70
2018,05,25,13,12,17.70
2018,05,25,13,13,17.80
2018,05,25,13,14,17.80
2018,05,25,13,15,17.90
2018,05,25,13,16,17.90
2018,05,25,13,17,17.90
2018,05,25,13,18,17.90
2018,05,25,13,19,17.90
2018,05,25,13,20,17.90
2018,05,25,13,21,17.90
2018,05,25,13,22,18.10
2018,05,25,13,23,18.10
2018,05,25,13,24,18.10
2018,05,25,13,25,17.90
2018,05,25,13,26,17.90
2018,05,25,13,27,17.90
2018,05,25,13,28,17.90
2018,05,25,13,29,17.90
2018,05,25,13,30,17.90
2018,05,25,13,31,18.00
2018,05,25,13,32,18.10
2018,05,25,13,33,18.20
2018,05,25,13,34,18.20
2018,05,25,13,35,18.30
2018,05,25,13,36,18.30
2018,05,25,13,37,18.30
2018,05,25,13,38,18.30
2018,05,25,13,39,18.20
2018,05,25,13,40,18.20
2018,05,25,13,41,18.10
2018,05,25,13,42,18.10
2018,05,25,13,43,18.00
2018,05,25,13,44,17.90
2018,05,25,13,45,17.90
2018,05,25,13,46,17.80
2018,05,25,13,47,17.80
2018,05,25,13,48,17.80
2018,05,25,13,49,17.90
2018,05,25,13,50,17.90
2018,05,25,13,51,17.90
2018,05,25,13,52,17.90
2018,05,25,13,53,18.00
2018,05,25,13,54,18.10
2018,05,25,13,55,18.00
2018,05,25,13,56,17.90
2018,05,25,13,57,18.10
2018,05,25,13,58,18.10
2018,05,25,13,59,18.20
2018,05,25,14,00,18.20
2018,05,25,14,01,18.20
2018,05,25,14,02,18.20
2018,05,25,14,03,18.20
2018,05,25,14,04,18.20
2018,05,25,14,05,18.20
2018,05,25,14,06,18.20
2018,05,25,14,07,18.20
2018,05,25,14,08,18.20
2018,05,25,14,09,18.20
2018,05,25,14,10,18.20
2018,05,25,14,11,18.10
2018,05,25,14,12,18.00
2018,05,25,14,13,17.90
2018,05,25,14,14,17.90
2018,05,25,14,15,17.80
2018,05,25,14,16,17.70
2018,05,25,14,17,17.70
2018,05,25,14,18,17.70
2018,05,25,14,19,17.80
2018,05,25,14,20,17.80
2018,05,25,14,21,17.80
2018,05,25,14,22,17.80
2018,05,25,14,23,17.80
2018,05,25,14,24,17.80
2018,05,25,14,25,17.80
2018,05,25,14,26,17.90
2018,05,25,14,27,17.90
2018,05,25,14,28,18.10
2018,05,25,14,29,18.20
2018,05,25,14,30,18.20
2018,05,25,14,31,18.00
2018,05,25,14,32,17.90
2018,05,25,14,33,17.90
2018,05,25,14,34,17.90
2018,05,25,14,35,17.90
2018,05,25,14,36,18.00
2018,05,25,14,37,18.20
2018,05,25,14,38,18.20
2018,05,25,14,39,18.30
2018,05,25,14,40,18.40
2018,05,25,14,41,18.40
2018,05,25,14,42,18.40
2018,05,25,14,43,18.50
2018,05,25,14,44,18.50
2018,05,25,14,45,18.60
2018,05,25,14,46,18.60
2018,05,25,14,47,18.70
2018,05,25,14,48,18.90
2018,05,25,14,49,18.90
2018,05,25,14,50,19.10
2018,05,25,14,51,19.30
2018,05,25,14,52,19.50
2018,05,25,14,53,19.60
2018,05,25,14,54,19.70
2018,05,25,14,55,19.70
2018,05,25,14,56,19.70
2018,05,25,14,57,19.70
2018,05,25,14,58,19.60
2018,05,25,14,59,19.50
2018,05,25,15,00,19.40
2018,05,25,15,01,19.30
2018,05,25,15,02,19.20
2018,05,25,15,03,19.20
2018,05,25,15,04,19.20
2018,05,25,15,05,19.20
2018,05,25,15,06,19.20
2018,05,25,15,07,19.30
2018,05,25,15,08,19.30
2018,05,25,15,09,19.30
2018,05,25,15,10,19.40
2018,05,25,15,11,19.40
2018,05,25,15,12,19.40
2018,05,25,15,13,19.40
2018,05,25,15,14,19.30
2018,05,25,15,15,19.30
2018,05,25,15,16,19.20
2018,05,25,15,17,19.10
2018,05,25,15,18,19.10
2018,05,25,15,19,19.10
2018,05,25,15,20,19.00
2018,05,25,15,21,18.90
2018,05,25,15,22,18.90
2018,05,25,15,23,18.90
2018,05,25,15,24,18.90
2018,05,25,15,25,18.80
2018,05,25,15,26,18.80
2018,05,25,15,27,18.80
2018,05,25,15,28,18.90
2018,05,25,15,29,18.90
2018,05,25,15,30,18.90
2018,05,25,15,31,18.80
2018,05,25,15,32,18.70
2018,05,25,15,33,18.70
2018,05,25,15,34,18.70
2018,05,25,15,35,18.70
2018,05,25,15,36,18.60
2018,05,25,15,37,18.70
2018,05,25,15,38,18.70
2018,05,25,15,39,18.70
2018,05,25,15,40,18.70
2018,05,25,15,41,18.80
2018,05,25,15,42,18.90
2018,05,25,15,43,18.90
2018,05,25,15,44,18.90
2018,05,25,15,45,18.90
2018,05,25,15,46,18.90
2018,05,25,15,47,18.90
2018,05,25,15,48,18.90
2018,05,25,15,49,18.90
2018,05,25,15,50,19.00
2018,05,25,15,51,19.10
2018,05,25,15,52,19.10
2018,05,25,15,53,19.10
2018,05,25,15,54,19.30
2018,05,25,15,55,19.40
2018,05,25,15,56,19.50
2018,05,25,15,57,19.60
2018,05,25,15,58,19.60
2018,05,25,15,59,19.80
2018,05,25,16,00,19.90
2018,05,25,16,01,19.90
2018,05,25,16,02,20.00
2018,05,25,16,03,20.10
2018,05,25,16,04,20.20
2018,05,25,16,05,20.20
2018,05,25,16,06,20.20
2018,05,25,16,07,20.20
2018,05,25,16,08,20.20
2018,05,25,16,09,20.30
2018,05,25,16,10,20.30
2018,05,25,16,11,20.40
2018,05,25,16,12,20.40
2018,05,25,16,13,20.40
2018,05,25,16,14,20.40
2018,05,25,16,15,20.40
2018,05,25,16,16,20.40
2018,05,25,16,17,20.10
2018,05,25,16,18,20.00
2018,05,25,16,19,19.90
2018,05,25,16,20,19.90
2018,05,25,16,21,19.80
2018,05,25,16,22,19.80
2018,05,25,16,23,19.80
2018,05,25,16,24,19.70
2018,05,25,16,25,19.70
2018,05,25,16,26,19.60
2018,05,25,16,27,19.50
2018,05,25,16,28,19.50
2018,05,25,16,29,19.40
2018,05,25,16,30,19.40
2018,05,25,16,31,19.30
2018,05,25,16,32,19.30
2018,05,25,16,33,19.30
2018,05,25,16,34,19.30
2018,05,25,16,35,19.20
2018,05,25,16,36,19.20
2018,05,25,16,37,19.10
2018,05,25,16,38,19.10
2018,05,25,16,39,18.90
2018,05,25,16,40,18.80
2018,05,25,16,41,18.70
2018,05,25,16,42,18.60
2018,05,25,16,43,18.60
2018,05,25,16,44,18.60
2018,05,25,16,45,18.60
2018,05,25,16,46,18.60
2018,05,25,16,47,18.60
2018,05,25,16,48,18.60
2018,05,25,16,49,18.60
2018,05,25,16,50,18.70
2018,05,25,16,51,18.70
2018,05,25,16,52,18.60
2018,05,25,16,53,18.60
2018,05,25,16,54,18.60
2018,05,25,16,55,18.60
2018,05,25,16,56,18.60
2018,05,25,16,57,18.50
2018,05,25,16,58,18.50
2018,05,25,16,59,18.50
2018,05,25,17,00,18.40
2018,05,25,17,01,18.40
2018,05,25,17,02,18.30
2018,05,25,17,03,18.30
2018,05,25,17,04,18.30
2018,05,25,17,05,18.20
2018,05,25,17,06,18.20
2018,05,25,17,07,18.20
2018,05,25,17,08,18.20
2018,05,25,17,09,18.20
2018,05,25,17,10,18.20
2018,05,25,17,11,18.30
2018,05,25,17,12,18.30
2018,05,25,17,13,18.40
2018,05,25,17,14,18.40
2018,05,25,17,15,18.40
2018,05,25,17,16,18.40
2018,05,25,17,17,18.50
2018,05,25,17,18,18.50
2018,05,25,17,19,18.60